Starlink 32345

operational
NORAD ID: 60920 Int'l Des: 2024-154 Owner: SPXS Country: US Constellation: starlink
LEOCIRCULAR

Über Starlink 32345

Beschreibung wird geladen...

Live-Position

3D-Globus wird geladen...

Nächste Überflüge

Höhenverlauf

Altitude vs Time

uPlot chart will show altitude changes over time

Zweizeiliger Elementsatz

1 60920U 24154T 25351.14987744 .00003204 00000-0 12028-3 0 9998
2 60920 53.1642 307.5261 0001377 82.0678 278.0479 15.30193777 73700
Epoch: 17. Dez. 2025 • Age: 10 hours

Aktueller Status

Höhe 480.3 km
Geschwindigkeit 7.63 km/s
Subsatellitenpunkt 50.71°N, 84.89°E
Startdatum 31. Aug. 2024
Alter 1.2 years
Typ internet

Technische Details

Klassifizierung Payload
Masse 730.00 kg
Trockenmasse 700.00 kg
Gesamtmasse 730.00 kg
Länge 0.30 m
Durchmesser 4.10 m
Spannweite 29.00 m
Form Box + pan
Hersteller SPXS
Bus-Typ Starlink V2M
Phasenstatus In Orbit
Besitzer/Staat SPXS/US

Große Konstellationen

Loading constellations...